STARLINK-35711, 66595

Orbit data source: Space-Track

STARLINK-35711, 66595 is a payload satellite owned by SpaceX/Seattle (US) in LEO that was launched on Sat, 22 Nov 2025 UTC via an FALCON 9 launch vehicle from the Air Force Eastern Test Range (AFETR). Payload-class satellites include a variety of spacecraft equipped with specific instruments for various scientific and technological missions. These include communications satellites like Starlink; space stations such as the ISS; scientific satellites like the Hubble; Earth observation satellites from companies like Planet Labs, Umbra, and HawkEye 360; GPS; miniature CubeSats for education and research; and military/defense satellites.

Loading next visibility...
Identifier
66595, 2025-270H
Orbit
LEO
Country
Flag of USUS
Related business
Manufacturer
SpaceX/Seattle
Mission
Operational Commercial Communications
Bus & Motor
STARLINK V2MO, Unknown motor
Mass
575 kg wet, ~530 kg dry
Launch date (UTC)
2025-11-22 (7 months ago)
Launch vehicle
FALCON 9
Launch site
Air Force Eastern Test Range (AFETR)
Object type
Payload
Rocket body
Debris
Shape & HBR
Box + 2 Pan, 17.7 m
Radar Cross Section
36.964 m², Large (>1 m²)

Expand to show TLE details & history
Last TLE update: 17 hours ago

TLE from 17 hours ago
0 STARLINK-35711
1 66595U 25270H   26171.12465446  .00017576  00000-0  64631-3 0  9995
2 66595  43.0013 197.5350 0001574 258.5391 101.5284 15.27600374 33488
Epoch: 2026-06-20T02:59Z
TLE epoch observation values (Epoch: 2026-06-20T02:59:30.145Z)
Latitude
-0.00001°
Longitude
-115.68439°
Altitude
482.98 km
Speed
7.626 km/s
True Right ascension
13h 10m 08s
True Declination
0° 00' 00"
Sunlit
Object was in daylight at epoch
Visualization orbit readout
Latitude
Unknown
Longitude
Unknown
Altitude
Unknown
Speed
Unknown
Apparent Right ascension
Unknown
Apparent Declination
Unknown
Sunlit
N/A
Visualization observer readout
Local Sidereal Time
07:17:22
Azimuth
Unknown
Elevation
Unknown
Doppler factor
Unknown
Orbital elements
Apogee altitude
486.013 km
Perigee altitude
483.853 km
Semi-major axis
6,863.07 km
Eccentricity
0.00016
Inclination
43.0013°
RAAN
197.535°
Arg. of periapsis
258.5391°
True anomaly
101.54607°
Mean anomaly
101.5284°
Eccentric anomaly
101.53724°
Mean motion
3.81738 °/min
Orbital period
94.31 mins
BSTAR
0.00064631
Loading maneuver chart data...
Computing Atmospheric mass density...
Loading historical data...
Loading historical data...
Loading historical data...
Loading historical data...
Loading historical data...
Loading historical data...
Loading historical data...

Documentation

Showing up to 5 results
|